Overview Statistics Trail Chart Weather Telemetry Raw packets
 

This is the latest recevied weather packets stored in our database for station/object DG4CB-13. If no packets are shown the sender has not sent any weather packets the latest 10 day(s).

<< 17 18 19 20 21 22 23 >>
Time Temp. Humidity Pressure Rain* Wind** Luminosity Snow
1788082200 21.67° C 54% 1012.3 hPa - - - -
1788081612 21.67° C 55% 1012.2 hPa - - - -
1788081000 21.11° C 60% 1012.3 hPa - - - -
1788080400 20.56° C 62% 1012.2 hPa - - - -
1788079800 20° C 66% 1012.2 hPa - - - -
1788079200 20° C 66% 1012.2 hPa - - - -
1788078600 19.44° C 66% 1012 hPa - - - -
1788078000 19.44° C 71% 1011.9 hPa - - - -
1788077400 19.44° C 72% 1012 hPa - - - -
1788076800 19.44° C 78% 1011.9 hPa - - - -
1788076200 19.44° C 79% 1011.9 hPa - - - -
1788075600 19.44° C 82% 1011.8 hPa - - - -
1788075000 18.89° C 85% 1011.7 hPa - - - -
1788074400 18.33° C 86% 1011.6 hPa - - - -
1788073800 18.33° C 87% 1011.6 hPa - - - -
1788073200 18.33° C 88% 1011.4 hPa - - - -
1788072600 17.78° C 87% 1011.5 hPa - - - -
1788072000 17.78° C 87% 1011.3 hPa - - - -
1788071400 17.78° C 87% 1011.2 hPa - - - -
1788070800 17.78° C 86% 1011 hPa - - - -
1788070200 17.78° C 89% 1010.9 hPa - - - -
1788069600 17.78° C 89% 1010.9 hPa - - - -
1788069000 17.78° C 86% 1010.8 hPa - - - -
1788068400 17.78° C 85% 1010.9 hPa - - - -
1788067800 18.33° C 81% 1010.9 hPa - - - -

* Rain since midnight (hover to see other rain measurements)
** Current wind speed in m/s (hover to see current wind gust speed)